Regional Weather Roundup
Issued by NWS Goodland, KS

Home | Current Version | Previous Version | Graphics & Text | Print | Product List | Glossary On
Versions: 1 2 3 4 5 6 7 8 9 10 11 12 13 14 15 16 17 18 19 20 21 22 23 24 25 26 27 28 29 30 31 32 33 34 35 36 37 38 39 40 41 42 43 44 45 46 47 48 49 50
000
ASUS43 KGLD 290508
RWRGLD

GOODLAND FORECAST AREA HOURLY WEATHER ROUNDUP
NATIONAL WEATHER SERVICE GOODLAND KS
1000 PM MST FRI NOV 28 2014

...OFFICIAL OBSERVATIONS...

CITY           SKY/WX    TMP DP  RH WIND       PRES   REMARKS
GOODLAND KS    CLOUDY    49  15  25 SW8       29.72F
HILL CITY KS   MOCLDY    38  19  46 NW3       29.69F
IMPERIAL NEB   CLOUDY    38  20  48 SW5       29.69F
MCCOOK NEB     CLOUDY    40  14  34 W5        29.68F
AKRON CO       CLOUDY    45  18  34 N7        29.75F
BURLINGTON CO  CLOUDY    45  14  28 SW8       29.73F
LIMON CO       CLOUDY    38  14  37 NW8       29.81S
$$

...UNOFFICIAL OBSERVATIONS...

CITY           SKY/WX    TMP DP  RH WIND       PRES   REMARKS
COLBY KS       CLEAR     43  25  49 S5        29.71S
NORTON KS      CLEAR     43  12  28 SW7       29.67F
SHARON SPRINGS   N/A     48  22  36 SW8         N/A
TRIBUNE KS     CLOUDY    45  30  57 SW13      29.74F
TRENTON NEB      N/A     55  32  41 CALM        N/A
YUMA CO          N/A     34  26  72 CALM        N/A
$$


USA.gov is the U.S. government's official web portal to all federal, state and local government web resources and services.